Temp_Advection
nan nan nan nan nan nan nan nan nan nan nan nan nan nan nan nan nan nan nan nan nan nan nan nan nan nan nan nan nan nan nan nan nan nan nan nan nan nan nan nan nan nan nan nan nan
nan -0 -0 -0 0 0 0 0 0 0 -0 -0 0 -0 -0 -0 -0 -1 -1 -0 -0 -0 -0 -1 -1 -0 -1 -0 -0 -0 0 0 0 -0 -0 -0 -0 -4 -0 1 -1 -1 -1 -0 nan
nan -0 -0 -0 -0 0 0 0 0 0 0 0 0 -0 -0 -0 -0 -1 -0 -0 -0 -0 -0 -0 -1 -1 -1 -0 -0 0 0 0 -0 -0 0 -0 -0 -0 -1 -0 -1 -1 -0 -0 nan
nan -0 -0 -0 -0 0 0 0 0 0 0 0 0 -0 -0 -0 0 0 -0 -0 -0 -0 -0 -1 -1 -1 -0 -0 -0 0 0 -0 -0 0 -0 -0 -0 -1 -1 -1 -1 -1 -0 -0 nan
nan 0 0 0 -0 -0 0 0 0 0 0 0 -0 -0 -0 -0 -0 0 -0 -0 -0 0 -1 -2 -0 -0 -0 0 -0 0 -0 0 0 0 -0 0 -1 -2 -0 -1 -1 -1 -0 -0 nan
nan -0 0 0 -0 -0 -0 0 0 0 0 0 -0 -0 -0 -1 -0 0 0 -0 -0 -0 -1 -1 -0 -0 -0 0 -0 -0 0 0 0 -0 -0 -3 -9 -2 1 -1 -1 -1 -1 -0 nan
nan -0 -0 -0 -0 -0 -0 -0 0 0 0 0 -0 0 -1 -1 0 -0 -0 -0 -0 -1 -1 -0 -0 -0 -0 -0 -0 -0 -0 0 -0 0 -1 -4 -0 0 -0 -1 -1 -1 -1 -0 nan
nan -0 -0 -0 -0 -0 -0 -0 -0 0 0 -0 -0 -0 -1 -0 0 -0 -0 -0 -0 -0 -0 -0 -0 -0 -0 -0 -0 -0 1 -0 0 0 -0 -1 -0 0 -0 -0 -1 -1 -1 -0 nan
nan -0 -0 -0 -0 -0 -0 -0 -0 -0 0 -0 0 -0 -1 -0 -0 -0 -0 -0 -0 -0 -0 -0 -0 -1 -1 -0 0 -0 0 0 0 0 0 -0 -0 -0 -0 -0 -0 -1 -1 -0 nan
nan -0 -0 -0 -0 -0 -0 -0 -0 0 0 -0 -0 -1 -1 -1 -0 -0 -0 -0 -0 -0 -0 -0 -1 -1 -0 1 0 -0 -0 0 -0 0 -0 -0 -0 -0 -0 -0 -0 -1 -1 -1 nan
nan -0 -0 -0 -0 -0 -0 0 0 -0 -1 -2 -1 -1 -0 -0 -0 -0 -0 -0 -0 -0 -0 -1 -0 -1 -1 -0 -0 -0 0 -0 -0 -0 0 -0 -0 -0 -0 -0 0 -0 -1 -1 nan
nan -0 -0 -0 -0 -0 -0 -0 0 0 0 -1 -1 -0 0 0 -0 -0 -0 -0 -0 -0 -0 0 -1 -1 -0 -0 0 0 0 -0 0 -0 0 -1 -0 -1 -1 -0 -0 -0 0 0 nan
nan -0 -0 -0 -0 -0 -0 -0 -0 -0 -1 -1 -0 -0 -0 -0 -1 -0 -0 -1 -1 -0 -0 -1 -2 -0 -0 0 0 0 -0 -0 -0 -0 0 -0 -7 -3 -6 -0 0 -0 -0 -0 nan
nan -0 -0 -0 -0 -0 -1 -0 -0 -0 -1 -0 -0 -0 -0 -0 -0 -0 -0 -0 -0 -0 -1 -1 -0 0 0 -0 -0 -0 0 -0 0 0 -0 2 -2 -2 -4 -7 0 0 0 0 nan
nan -0 -0 -0 -0 -0 -0 -0 -0 -0 -1 1 -0 -0 -0 -1 -0 -0 -0 -0 -0 -0 -0 -0 -0 0 -0 -1 -0 -0 -0 0 0 0 0 -0 -3 1 -0 -5 1 -0 -0 -0 nan
nan -0 -0 -0 -1 -0 -0 -0 -0 -0 -1 0 -0 -0 -0 -0 -0 -0 -0 -0 -1 -0 0 -0 -0 0 -0 -0 -0 0 0 0 1 1 0 3 -3 0 -1 1 0 -0 -0 -0 nan
nan -0 -0 -0 -0 0 -0 -1 -0 -2 -0 -1 -0 -0 -0 -0 -0 -0 -0 -0 -0 -0 -0 -0 -0 0 0 -0 -0 0 1 1 -1 -1 -0 -1 -4 -1 -5 -1 -0 -0 -0 -0 nan
nan -0 -0 -0 0 -0 -0 -1 -1 -2 -1 -0 -1 -0 -0 -0 -0 -0 -0 -1 -1 -1 0 0 0 -1 -0 0 0 -0 0 2 -1 -1 -0 -2 -1 -0 -2 -0 -0 -1 -0 -0 nan
nan -0 -0 -0 0 -0 -1 -1 -1 -1 -0 -0 0 -0 -0 -0 0 0 -0 -1 -1 0 0 0 -0 0 -0 -0 0 0 -1 0 1 0 1 -1 -0 0 2 0 -0 -1 -1 -1 nan
nan -1 -0 -0 0 -0 -1 -2 -3 -1 -1 0 0 -0 -0 -0 0 -0 -0 -1 -0 -0 0 1 -0 0 0 0 0 0 -0 -0 -0 -0 -1 -1 -2 -1 -3 -2 0 -0 -1 -1 nan
nan -1 0 -0 -0 -1 -1 -2 -1 -0 -0 -0 -0 -0 0 -0 -0 -0 -0 -0 -0 0 0 0 1 -0 -0 -0 0 -0 -0 -0 -0 -2 -0 -0 -0 -1 -1 -7 1 -0 -0 -0 nan
nan -1 -0 -0 -1 -2 -1 -1 -1 -0 0 -0 -0 0 -0 -0 2 0 -0 0 0 0 0 -0 0 0 -1 -1 0 0 -0 0 -1 -0 -1 -1 -0 -1 -3 -7 1 -0 -0 -0 nan
nan -1 -0 -0 -1 -1 -1 -1 -0 -0 -0 0 -0 -1 0 0 -0 -2 0 0 0 0 -0 -0 1 0 -0 1 -6 -1 -1 -0 0 -2 -3 -0 -1 -2 -6 -0 -0 -0 -0 -0 nan
nan -0 -0 -1 -2 -1 -1 -0 0 -0 -1 -1 -0 -0 0 -0 -0 2 -0 0 0 1 -0 -0 -0 1 -1 -0 0 -3 -2 -2 -3 0 1 -1 -4 -4 -2 -0 -0 -0 -0 -0 nan
nan -1 -1 -0 -1 -0 -0 -0 -0 -0 -0 0 -0 -0 0 2 -1 -4 -2 1 0 -0 -0 0 1 0 -0 -0 -0 -2 2 -1 -4 -3 0 1 0 -1 0 -0 -1 -0 -0 -0 nan
nan -2 -2 -3 -1 0 -0 -1 -1 -1 -0 0 -0 -0 1 -1 -2 1 -3 -2 2 -0 -0 0 0 2 -2 -2 0 -6 -3 -2 -5 -1 0 -0 -1 -1 -1 0 0 -0 -0 -1 nan
nan nan nan nan nan nan nan nan nan nan nan nan nan nan nan nan nan nan nan nan nan nan nan nan nan nan nan nan nan nan nan nan nan nan nan nan nan nan nan nan nan nan nan nan nan
Wind_Speed
13 13 14 15 15 16 16 16 16 15 13 11 9 7 7 5 5 5 7 7 10 8 6 3 8 7 12 12 3 2 3 8 11 14 11 10 11 9 14 13 14 15 15 23 23
14 15 15 15 16 16 16 16 16 15 12 9 7 6 6 5 5 11 12 13 12 9 5 10 10 8 12 4 1 3 2 8 5 11 12 8 9 23 5 13 17 17 17 20 22
14 15 16 17 17 17 17 17 16 14 11 8 6 5 4 4 3 9 15 12 12 9 4 8 8 13 10 5 0 4 6 8 13 8 2 13 8 11 8 13 16 16 16 19 19
15 16 17 17 18 18 18 17 16 13 9 6 5 4 4 2 2 4 10 13 12 11 9 13 16 18 7 7 3 4 6 3 3 3 6 9 6 15 15 13 15 18 17 15 14
16 16 17 18 18 18 18 17 16 10 6 5 3 3 2 5 1 6 12 15 13 10 8 16 12 5 4 3 7 11 5 2 2 1 4 3 9 14 14 17 18 18 15 13 15
16 17 17 18 18 18 18 17 13 7 5 4 2 2 4 9 2 4 13 16 12 11 10 10 6 5 7 4 6 2 3 2 0 2 10 19 37 27 11 18 19 18 16 12 14
17 17 17 18 18 18 17 16 9 4 4 3 2 3 6 6 2 4 12 14 12 11 13 6 5 11 10 8 4 12 8 9 5 1 11 21 9 3 11 15 14 15 15 12 13
18 17 17 17 18 17 16 13 6 3 3 3 2 3 7 5 5 7 11 12 11 11 11 5 5 11 10 6 12 15 11 9 6 9 6 6 10 4 6 11 15 14 14 12 12
18 17 17 17 17 16 14 11 5 3 3 2 2 3 9 4 8 10 13 13 12 11 10 6 8 16 20 15 12 8 4 6 10 4 6 7 7 8 3 9 21 19 14 13 12
18 18 17 17 16 15 13 9 6 6 5 6 8 7 12 9 9 11 13 13 14 13 12 12 13 14 13 12 6 12 3 5 6 7 2 5 8 6 8 11 13 19 16 14 14
18 17 16 16 15 15 9 8 7 4 10 12 11 10 7 7 9 10 12 13 12 15 13 16 12 15 13 11 5 6 4 6 7 6 5 7 6 6 3 1 6 11 18 20 20
18 17 15 15 13 13 6 4 6 8 10 22 15 14 3 7 9 11 13 16 16 14 15 15 15 17 8 6 3 5 7 12 6 5 8 11 12 9 8 7 7 6 9 15 18
19 16 14 13 11 7 6 11 8 9 9 15 15 15 12 10 13 14 16 18 16 15 16 17 19 13 5 5 6 9 13 3 5 3 7 9 28 17 30 6 3 1 7 9 11
19 16 14 9 5 5 9 6 5 8 5 14 14 12 14 13 12 15 17 14 8 15 16 16 18 3 7 8 9 15 1 3 7 10 12 16 6 13 29 25 8 7 1 8 11
19 16 11 10 8 5 3 4 7 5 6 17 15 13 14 18 15 14 16 15 13 12 13 14 12 11 8 12 12 13 4 7 10 10 13 5 10 3 10 19 6 10 11 7 2
18 16 10 10 10 9 9 6 6 6 8 12 11 13 15 21 10 19 17 12 13 12 10 17 6 10 10 11 13 10 11 12 15 14 13 17 10 5 6 2 7 10 14 10 15
18 15 12 11 6 3 5 6 6 10 11 12 17 16 18 13 14 12 15 14 11 8 12 12 12 11 11 12 13 10 13 12 5 12 12 19 13 8 21 7 12 12 14 17 14
16 14 13 12 10 10 4 7 9 13 14 15 13 17 16 15 15 15 15 15 17 18 10 13 14 18 13 14 14 17 16 12 7 16 14 14 12 9 14 13 15 16 16 17 20
14 9 8 5 12 9 11 10 9 10 10 7 17 17 15 16 11 14 16 16 17 17 17 9 5 9 8 12 13 17 14 13 16 10 7 9 6 10 13 11 13 15 17 18 18
12 7 8 8 9 10 9 17 18 23 12 3 11 13 15 17 12 13 17 15 17 15 16 16 5 18 10 8 12 15 11 13 9 6 4 4 9 6 11 8 9 13 12 15 16
9 7 10 9 11 12 10 17 18 7 6 10 12 12 14 13 15 13 13 13 15 10 10 13 14 5 9 9 16 3 4 6 5 7 3 3 3 12 14 27 10 12 12 10 12
8 7 8 12 11 14 12 19 13 8 6 12 17 16 22 10 17 15 14 15 12 1 9 12 15 8 17 19 7 8 8 8 4 3 6 13 2 18 25 30 13 12 12 8 8
7 10 7 13 7 11 19 21 7 7 17 9 17 13 14 3 4 17 11 10 8 8 4 6 9 10 15 6 26 10 14 14 13 9 20 2 5 18 26 13 13 12 11 6 6
7 3 9 13 19 17 17 14 13 16 20 16 12 15 15 13 8 9 15 5 10 9 4 5 13 12 4 7 2 18 20 15 17 7 8 11 21 24 18 14 13 10 6 4 4
7 8 20 7 12 15 16 13 11 15 13 14 10 16 12 13 5 12 13 14 8 7 3 6 13 1 13 8 11 20 17 12 22 16 11 16 12 20 15 12 14 10 7 4 6
11 15 20 21 11 9 5 9 15 14 12 13 13 14 18 4 12 13 17 16 9 7 10 12 11 15 13 14 10 31 23 22 27 9 7 9 16 17 19 11 10 7 6 7 8
13 11 11 14 12 10 10 13 15 16 17 12 9 16 9 4 8 18 17 22 28 3 7 11 9 8 9 11 22 20 8 3 6 4 4 4 12 14 9 8 7 6 9 9 7
Wind_Direction
355 353 352 347 345 343 342 341 339 336 329 322 320 314 303 295 266 233 209 236 236 233 235 296 249 253 256 257 246 169 251 45 23 82 75 22 90 91 51 73 58 41 116 131 142
351 350 349 347 344 341 340 340 339 336 330 323 320 313 307 299 264 239 216 224 226 216 228 273 282 230 233 192 173 159 26 73 11 53 91 74 69 89 151 111 98 88 109 127 146
347 347 347 346 343 341 340 338 338 335 327 324 318 311 297 282 275 215 218 214 198 202 225 301 274 266 243 233 208 32 59 7 75 2 32 54 48 47 123 58 95 115 132 139 154
343 343 344 344 342 340 338 338 336 334 325 323 319 302 282 285 351 178 199 191 191 205 237 275 258 261 278 99 168 129 89 78 17 281 35 83 352 70 74 66 93 117 134 140 161
340 339 340 340 340 338 336 336 334 331 325 323 318 290 251 256 324 310 186 183 188 213 256 272 306 312 17 92 209 52 37 9 103 67 57 178 67 36 98 100 100 114 122 147 166
337 336 335 336 337 337 336 337 338 334 330 326 312 262 208 255 61 320 173 180 186 214 247 263 1 312 307 343 343 108 142 65 26 26 70 49 40 326 112 110 117 130 132 152 167
333 333 331 332 334 335 336 338 341 338 332 326 308 256 255 277 175 184 180 186 193 219 250 251 307 288 298 229 129 243 159 132 58 186 81 95 107 106 125 123 131 136 144 147 153
329 329 328 328 329 332 333 335 333 331 335 328 295 253 274 190 181 187 181 191 208 220 258 359 249 289 290 305 223 233 209 124 91 1 136 132 100 55 139 149 152 137 142 153 153
325 326 325 324 325 328 328 327 307 283 293 295 99 285 251 212 200 194 193 200 207 217 235 269 264 265 270 241 246 307 191 87 126 124 336 29 34 8 207 190 170 140 158 160 162
323 323 322 320 322 324 323 313 288 265 262 239 230 258 232 229 194 193 199 210 206 214 223 233 238 247 247 249 204 213 235 169 126 86 93 41 76 8 295 186 161 143 168 168 168
321 321 320 317 319 322 317 313 302 235 215 228 155 237 141 142 151 201 195 201 207 214 219 208 234 241 251 323 91 219 16 273 132 121 243 105 84 34 345 258 163 166 174 176 182
321 319 317 314 316 314 292 246 11 329 292 232 245 239 234 182 195 205 187 197 203 210 217 222 225 256 14 36 272 240 250 251 128 119 250 131 98 64 35 25 7 323 183 195 188
320 319 315 311 315 305 263 279 304 327 274 254 214 223 212 213 228 187 187 203 193 222 203 238 221 216 39 196 225 228 250 49 334 272 247 175 45 340 3 33 96 317 283 282 244
320 317 315 306 317 273 274 255 289 316 275 182 195 215 185 203 223 179 193 197 215 214 229 227 256 172 232 249 255 272 80 20 271 254 260 202 121 22 353 320 21 45 34 195 254
320 313 314 297 280 261 316 313 296 278 277 135 163 161 181 207 138 176 192 220 263 224 212 224 228 219 218 237 244 275 2 293 274 261 273 140 96 265 197 272 58 58 45 42 187
319 308 302 290 266 250 278 294 291 234 255 156 146 184 173 222 192 155 190 228 249 250 244 259 211 263 244 233 251 275 286 270 253 249 246 241 116 238 226 63 91 71 71 59 55
316 300 284 250 197 212 264 255 225 243 145 156 165 177 186 195 183 166 193 204 220 209 216 229 251 212 253 265 244 234 250 255 359 293 262 117 97 190 225 218 120 100 77 79 70
314 295 274 246 219 267 232 227 248 227 236 133 162 175 199 193 188 183 193 213 228 238 220 208 214 217 202 227 253 230 246 269 151 285 246 36 123 133 183 132 117 108 93 80 74
317 303 285 259 217 191 219 224 227 267 298 155 174 176 205 201 220 187 212 217 217 228 258 277 350 173 221 204 227 254 264 288 295 276 265 114 96 224 136 140 124 101 97 88 81
320 240 252 188 179 177 227 245 268 307 321 215 205 191 207 200 207 184 201 221 237 211 247 275 183 209 212 251 250 265 327 310 352 336 5 88 76 8 336 300 130 111 99 94 85
310 238 162 175 172 205 230 236 237 263 292 305 282 216 228 204 193 211 228 223 218 192 247 275 296 143 35 254 246 148 325 356 338 40 100 337 139 141 286 273 148 116 103 81 80
284 266 171 166 195 224 238 248 270 278 207 264 282 293 259 237 190 237 221 193 193 307 207 246 277 269 208 236 152 178 166 166 135 140 229 240 120 178 191 238 137 121 102 87 75
278 261 180 187 230 226 224 252 271 268 253 227 251 270 298 298 155 231 126 92 125 185 329 295 239 264 263 203 7 339 25 352 278 152 213 106 101 230 216 162 142 123 117 105 75
287 224 160 210 249 286 287 224 236 236 273 297 258 255 254 266 252 214 120 136 167 182 48 302 277 323 73 113 182 295 331 4 315 314 13 141 150 182 179 162 139 119 123 102 79
248 286 351 182 218 236 265 294 284 252 211 255 263 272 262 253 54 330 243 146 191 102 208 244 262 333 160 146 204 252 270 59 310 305 325 344 13 158 159 140 123 147 122 64 22
334 344 339 307 308 295 250 257 268 275 225 220 235 239 257 25 66 37 8 19 190 153 218 239 255 266 168 146 148 276 226 213 223 292 311 340 81 93 104 122 147 121 72 31 29
356 334 309 293 276 257 244 237 248 249 258 204 242 251 271 98 117 134 128 19 321 34 263 241 283 329 319 230 167 227 268 296 318 57 37 347 80 113 127 126 88 59 52 50 10
Height
1536 1534 1531 1529 1526 1524 1521 1519 1517 1515 1513 1511 1510 1509 1508 1507 1507 1507 1508 1510 1509 1508 1507 1506 1508 1505 1500 1496 1497 1495 1503 1494 1490 1491 1493 1490 1490 1494 1497 1499 1499 1500 1505 1513 1521
1536 1534 1531 1529 1526 1523 1521 1518 1516 1513 1511 1510 1509 1508 1507 1507 1506 1505 1508 1507 1508 1508 1507 1506 1502 1500 1496 1492 1493 1495 1495 1491 1488 1485 1488 1492 1491 1494 1504 1498 1501 1506 1512 1518 1523
1536 1533 1531 1528 1525 1522 1520 1517 1515 1513 1510 1509 1509 1507 1507 1506 1506 1502 1504 1506 1507 1508 1508 1506 1503 1496 1490 1487 1490 1489 1494 1489 1489 1491 1490 1489 1490 1491 1493 1495 1498 1508 1515 1520 1523
1535 1532 1530 1527 1524 1521 1519 1516 1514 1512 1510 1509 1508 1507 1506 1507 1501 1502 1504 1506 1507 1507 1507 1505 1500 1494 1485 1486 1491 1490 1491 1492 1492 1491 1489 1492 1491 1492 1497 1501 1504 1511 1517 1521 1524
1534 1532 1529 1527 1524 1521 1518 1515 1513 1511 1509 1508 1508 1507 1507 1508 1504 1501 1502 1505 1507 1507 1508 1502 1496 1493 1488 1490 1489 1488 1491 1492 1492 1488 1490 1492 1495 1498 1499 1503 1509 1516 1521 1524 1524
1533 1531 1528 1526 1523 1520 1517 1515 1512 1510 1509 1508 1508 1507 1508 1507 1504 1501 1503 1505 1507 1508 1508 1503 1500 1499 1493 1490 1490 1491 1491 1491 1489 1490 1490 1494 1504 1512 1505 1504 1510 1515 1520 1522 1523
1532 1530 1527 1525 1522 1519 1516 1514 1512 1510 1509 1509 1508 1507 1508 1505 1504 1504 1504 1505 1506 1509 1506 1504 1504 1500 1493 1488 1491 1488 1489 1488 1489 1490 1493 1497 1516 1505 1505 1504 1508 1512 1517 1520 1522
1531 1529 1526 1523 1521 1518 1515 1513 1511 1510 1510 1509 1508 1508 1506 1503 1504 1504 1505 1507 1508 1509 1507 1506 1507 1503 1495 1490 1488 1484 1481 1498 1490 1490 1490 1493 1511 1501 1502 1500 1503 1510 1516 1519 1521
1530 1527 1525 1522 1519 1517 1514 1512 1511 1510 1509 1509 1509 1508 1502 1501 1503 1503 1505 1506 1508 1508 1508 1509 1508 1501 1494 1490 1491 1484 1501 1492 1494 1489 1487 1490 1502 1500 1496 1497 1486 1502 1513 1518 1521
1528 1525 1523 1520 1518 1515 1513 1510 1509 1509 1508 1508 1508 1512 1501 1498 1499 1501 1503 1504 1506 1507 1508 1508 1505 1497 1487 1483 1513 1511 1494 1489 1493 1490 1489 1493 1500 1500 1496 1493 1495 1498 1508 1515 1519
1526 1523 1521 1518 1516 1514 1512 1509 1510 1508 1507 1499 1498 1494 1494 1496 1498 1501 1502 1504 1503 1505 1503 1502 1502 1497 1484 1481 1483 1486 1490 1493 1483 1485 1490 1495 1503 1505 1500 1493 1494 1499 1503 1507 1510
1524 1521 1519 1517 1515 1513 1511 1509 1508 1509 1502 1496 1496 1494 1494 1495 1497 1497 1500 1503 1501 1501 1499 1497 1501 1482 1478 1482 1486 1486 1489 1486 1481 1482 1488 1493 1509 1513 1511 1506 1503 1501 1500 1501 1501
1522 1519 1517 1515 1513 1511 1510 1510 1509 1508 1501 1487 1490 1491 1493 1495 1492 1493 1498 1497 1497 1497 1495 1494 1483 1479 1483 1485 1490 1487 1486 1484 1489 1481 1481 1490 1543 1537 1533 1514 1510 1507 1506 1501 1492
1519 1517 1515 1513 1514 1511 1510 1509 1509 1508 1500 1480 1484 1485 1489 1491 1488 1489 1494 1494 1489 1493 1489 1488 1477 1480 1485 1489 1484 1489 1473 1479 1486 1491 1500 1478 1569 1569 1551 1538 1514 1509 1505 1503 1496
1517 1515 1514 1512 1511 1510 1510 1509 1509 1508 1514 1473 1478 1480 1485 1485 1479 1488 1492 1490 1487 1485 1485 1485 1482 1480 1488 1485 1479 1484 1474 1480 1479 1486 1486 1487 1535 1578 1555 1549 1518 1513 1509 1507 1503
1514 1512 1511 1510 1508 1508 1508 1509 1509 1509 1501 1470 1473 1478 1481 1480 1480 1483 1489 1490 1485 1481 1479 1475 1474 1475 1478 1478 1478 1477 1479 1479 1477 1480 1499 1475 1534 1568 1553 1523 1521 1517 1514 1512 1509
1511 1508 1507 1507 1508 1508 1509 1509 1507 1504 1457 1465 1471 1472 1475 1477 1476 1481 1486 1489 1488 1496 1491 1481 1478 1476 1477 1480 1473 1477 1484 1501 1518 1506 1500 1475 1508 1544 1532 1522 1519 1519 1518 1517 1516
1507 1504 1502 1502 1505 1506 1508 1507 1508 1468 1457 1450 1459 1467 1474 1468 1471 1476 1482 1486 1479 1475 1475 1485 1492 1472 1470 1476 1479 1475 1473 1490 1534 1522 1497 1481 1521 1525 1517 1519 1522 1522 1522 1521 1520
1503 1500 1498 1499 1499 1504 1507 1502 1482 1457 1447 1449 1455 1467 1470 1463 1465 1471 1476 1476 1470 1470 1480 1471 1482 1459 1463 1464 1470 1473 1475 1457 1473 1465 1477 1506 1523 1524 1517 1521 1525 1527 1526 1525 1525
1500 1500 1498 1500 1498 1503 1501 1492 1468 1458 1453 1447 1462 1457 1469 1461 1469 1468 1470 1463 1464 1462 1463 1465 1487 1470 1464 1466 1464 1467 1463 1483 1474 1509 1524 1520 1552 1574 1549 1534 1527 1526 1532 1529 1529
1500 1497 1495 1498 1501 1501 1493 1480 1466 1460 1461 1460 1455 1454 1453 1455 1459 1463 1463 1458 1458 1458 1461 1461 1464 1480 1474 1471 1472 1473 1484 1489 1491 1521 1570 1560 1568 1551 1557 1548 1526 1528 1531 1533 1532
1502 1495 1494 1496 1499 1491 1484 1473 1467 1462 1464 1465 1458 1454 1466 1449 1455 1459 1461 1451 1456 1459 1467 1465 1465 1474 1473 1457 1456 1466 1481 1493 1517 1547 1550 1523 1552 1544 1535 1534 1527 1529 1530 1535 1536
1501 1489 1493 1494 1489 1479 1474 1469 1464 1466 1465 1461 1461 1453 1446 1450 1488 1454 1455 1455 1458 1462 1468 1464 1470 1486 1474 1467 1482 1479 1483 1492 1487 1494 1524 1522 1553 1529 1530 1522 1524 1527 1530 1536 1536
1503 1482 1487 1490 1486 1479 1469 1463 1466 1467 1465 1461 1457 1455 1452 1451 1445 1454 1460 1463 1462 1462 1469 1471 1471 1477 1506 1525 1525 1515 1495 1497 1491 1479 1487 1502 1510 1517 1518 1520 1522 1525 1531 1533 1534
1500 1481 1476 1475 1476 1476 1471 1466 1465 1466 1465 1464 1465 1460 1454 1458 1471 1484 1451 1458 1464 1466 1469 1471 1482 1480 1504 1500 1512 1505 1505 1507 1521 1484 1492 1483 1487 1499 1506 1512 1519 1526 1529 1531 1532
1502 1498 1490 1480 1471 1472 1469 1470 1469 1462 1458 1466 1466 1459 1456 1469 1485 1497 1479 1472 1464 1467 1470 1467 1478 1473 1503 1500 1518 1528 1489 1491 1495 1480 1482 1486 1495 1499 1510 1517 1518 1521 1525 1529 1532
1509 1506 1501 1487 1476 1471 1469 1466 1465 1462 1455 1457 1459 1460 1456 1466 1475 1485 1486 1488 1493 1470 1469 1468 1469 1477 1492 1487 1508 1541 1476 1473 1470 1474 1485 1500 1503 1507 1512 1515 1518 1521 1524 1530 1534